Flag for Switzerland Weather past 2 weeks in Kreuzlingen, Thurgau, Switzerland

Now
62 °F

Clear.


Feels Like: 62 °F
Forecast: 57 / 67 °F
Wind: 1 mph from Southwest

Location: Konstanz

Current Time: Sep 20, 2014 at 10:20:37 PM

Latest Report: Sep 20, 2014 at 10:00 PM


Visibility: 44 mi

Pressure: 30.02 "Hg

Humidity: 87%

Dew point: 58 °F

Location of KreuzlingenLocation

Historic Weather in Kreuzlingen — Graph

°F

Kreuzlingen temperature yesterday

Maximum temperature yesterday: 76 °F (at 2:00 PM)
Minimum temperature yesterday: 60 °F (at 5:00 AM)
Average temperature yesterday: 66 °F

Past Weeks' High & Low Weather Summary

 TemperatureHumidityPressure
High79 °F (Sep 6, 5:00 PM)99% (Sep 7, 7:00 AM)30.15 "Hg (Sep 7, 7:00 AM)
Low49 °F (Sep 12, 7:00 AM)43% (Sep 6, 6:00 PM)29.80 "Hg (Sep 17, 6:00 PM)
Average63 °F83%29.98 "Hg
* Reported Sep 5 9:00 PM — Sep 20 9:00 PM, Kreuzlingen, Weather by CustomWeather, © 2014

Note: Actual official high and low records may vary slightly from our data, if they occured in-between our weather recording intervals... More about our weather records

Advertising

Kreuzlingen weather history for previous 24 hours

 ConditionsComfort  
Time TempWeatherWind HumidityBarometerVisibility
9:00 PM
Sep 20
63 °FPassing clouds.3 mph87%30.02 "Hg25 mi
8:00 PM64 °FPassing clouds.2 mph82%29.99 "Hg25 mi
3:00 PM72 °FPartly sunny.2 mph62%29.98 "Hg25 mi
2:00 PM70 °FOvercast.3 mph73%29.99 "Hg19 mi
1:00 PM70 °FOvercast.2 mph76%29.99 "Hg22 mi
12:00 PM69 °FOvercast.1 mph74%30.00 "Hg22 mi
11:00 AM67 °FPartly sunny.1 mph74%30.00 "Hg25 mi
10:00 AM65 °FPartly sunny.1 mph87%30.00 "Hg25 mi
9:00 AM62 °FOvercast.1 mph95%30.00 "Hg12 mi
8:00 AM61 °FLight rain. Overcast.2 mph96%30.00 "Hg7 mi
7:00 AM62 °FLow clouds.2 mph98%29.98 "Hg4 mi
6:00 AM62 °FLight rain. Low clouds.1 mph97%29.99 "Hg4 mi
5:00 AM62 °FLight rain. Passing clouds.2 mph97%29.99 "Hg3 mi
4:00 AM62 °FPassing clouds.1 mph97%29.99 "Hg4 mi
3:00 AM62 °FLight rain. Passing clouds.1 mph96%30.00 "Hg7 mi
2:00 AM63 °FLight rain. Passing clouds.2 mph97%29.99 "Hg5 mi
1:00 AM63 °FRain. Passing clouds.1 mph96%30.00 "Hg3 mi
12:00 AM64 °FLight rain. Clear.2 mph93%30.00 "Hg11 mi
11:00 PM
Sep 19
64 °FOvercast.1 mph92%29.98 "Hg14 mi
10:00 PM65 °FPassing clouds.2 mph90%29.97 "Hg16 mi
Weather by CustomWeather, © 2014

See weather overviewHow to use our weather pages